AirNav  
 
 366 users online  

74NJ Cruz Farm Heliport
Farmingdale, New Jersey, USA

GOING TO FARMINGDALE?


FAA INFORMATION EFFECTIVE 09 NOVEMBER 2017

Location

FAA Identifier: 74NJ
Lat/Long: 40-11-12.4070N / 074-09-02.5090W
40-11.206783N / 074-09.041817W
40.1867797 / -74.1506969
(estimated)
Elevation: 60 ft. / 18 m (estimated)
Variation: 12W (1985)
From city: 1 mile NW of FARMINGDALE, NJ
Time zone: UTC -5 (UTC -4 during Daylight Saving Time)
Zip code: 07727

Heliport Operations

Heliport use: Private use. Permission required prior to landing
Activation date: 02/1987
Control tower: no
ARTCC: NEW YORK CENTER
FSS: MILLVILLE FLIGHT SERVICE STATION
Attendance: UNATNDD
Wind indicator: yes
Segmented circle: no
Lights: FOR FLOODLIGHTS CALL 908-946-8400.

Heliport Communications

WX AWOS-3PT at BLM (1.2 nm E): 121.625 (732-938-3330)
WX AWOS-AV at N12 (7 nm S): 122.8 (732-363-6471)
WX AWOS-3PT at MJX (17 nm SW): 119.875 (732-797-2542)

Nearby radio navigation aids

VOR radial/distance  VOR name  Freq  Var
COLr188/7.5COLTS NECK VOR/DME115.4011W
RBVr103/15.8ROBBINSVILLE VORTAC113.8010W
GXUr075/23.1MC GUIRE VORTAC110.6012W
CYNr040/25.7COYLE VORTAC113.4010W
CRIr216/28.1CANARSIE VOR/DME112.3011W
JFKr225/31.9KENNEDY VOR/DME115.9012W
ARDr107/34.9YARDLEY VOR/DME108.2010W
SBJr141/36.0SOLBERG VOR/DME112.9010W
LGAr212/38.1LA GUARDIA VOR/DME113.1012W
PNEr091/(39.9)NORTH PHILADELPHIA VOR112.0010W
TEBr197/39.9TETERBORO VOR/DME108.4011W

 
NDB name  Hdg/Dist  Freq  Var  ID
LAKEHURST056/12.039611WNEL -. . .-..
BRIDGE220/25.941412WOGY --- --. -.--
CHATHAM172/35.625413WCAT -.-. .- -

Heliport Services

Runway Information

Helipad H1

Dimensions: 100 x 100 ft. / 30 x 30 m
Surface: concrete/turf
Runway edge lights: FLOODLIGHTS.
Traffic pattern: leftleft

Heliport Ownership and Management from official FAA records

Ownership: Privately-owned
Owner: AIDIL INVESTMENT CORP
CHARMS HIGHWAY 34 BLDG 315
COLTS NECK, NJ 07722
Phone 908-946-8400
Manager: NICHOLAS FERRANTE
CHARMS HIGHWAY 34 BLDG 315
COLTS NECK, NJ 07722
Phone 908-946-8400

Heliport Operational Statistics

Aircraft based on the field: 1
Helicopters: 1
    

Additional Remarks

A52-H1 60' PLINE 2000' SW.

Instrument Procedures

There are no published instrument procedures at 74NJ.

Some nearby airports with instrument procedures:

KBLM - Monmouth Executive Airport (1 nm E)
N12 - Lakewood Airport (7 nm S)
3N6 - Old Bridge Airport (12 nm NW)
KNEL - Lakehurst Maxfield Field Airport (13 nm SW)
KMJX - Ocean County Airport (17 nm SW)
 
Loc | Ops | Rwys | IFR | FBO | Links
Com | Nav | Svcs | Stats | Notes


 
Area around 74NJ (Cruz Farm Heliport)
 
Road maps at: MapQuest Bing Google
 
Aerial photo
WARNING: Photo may not be current or correct
Aerial photo of 74NJ (Cruz Farm Heliport)
Do you have a better or more recent aerial photo of Cruz Farm Heliport that you would like to share? If so, please send us your photo.

 
Sectional chart

 
Airport distance calculator
Flying to Cruz Farm Heliport? Find the distance to fly.

From to 74NJ

Sunrise and sunset
Times for 25-Nov-2017
 Local
(UTC-5)
 Zulu
(UTC)
Morning civil twilight06:2511:25
Sunrise06:5411:54
Sunset16:3321:33
Evening civil twilight17:0322:03

Current date and time
Zulu (UTC)  25-Nov-2017 08:00:47
Local (UTC-5)  25-Nov-2017 03:00:47
 
METAR
KBLM 
2nm SE 
AWOS-3 121.625 732-938-3330
250656Z AUTO 22005KT 10SM CLR 03/M01 A2992 RMK AO2 SLP138 T00281006
KNEL 
13nm SW 
250700Z AUTO 00000KT 10SM CLR M02/M03 A2990 RMK AO2 SLP124 T10221033 FZRANO PNO $
KMJX 
17nm SW 
AWOS-3 119.875 732-244-4450
250656Z AUTO 00000KT 10SM CLR M03/M04 A2993 RMK AO2 SLP140 T10331044 FZRANO
TAF
KWRI 
22nm SW 
250200Z 2502/2608 20006KT 9999 SKC QNH2970INS BECMG 2517/2518 27012KT 9999 BKN030 OVC200 QNH2966INS TX16/2518Z TNM03/2507Z
NOTAMs
Click for the latest NOTAMs
NOTAMs are issued by the DoD/FAA and will open in a separate window not controlled by AirNav.

 

 
 

Would you like to see your business listed on this page?

 If your business provides an interesting product or service to pilots, flight crews, aircraft, or users of the Cruz Farm Heliport, you should consider listing it here.  To start the listing process, click on the button below
 
Add a business
 

Other Pages about Cruz Farm Heliport

Update a link
 
Copyright © AirNav, LLC. All rights reserved. Privacy Policy  Contact